Hastings, NE

5:07 PM CST on November 23, 2017 (GMT -0600)
Hastings Municipal

Weather History for KHSI - July, 2013

Change the Weather History Date:

Tuesday, July 16, 2013

  Actual Average Record
Temperature  
Mean Temperature 75 °F 78 °F  
Max Temperature 87 °F 88 °F 111 °F (1934)
Min Temperature 63 °F 67 °F 49 °F (1912)
Degree Days  
Heating Degree Days 0 0  
Month to date heating degree days 0 0  
Since 1 June heating degree days 27 21  
Since 1 July heating degree days 0 0  
Cooling Degree Days 10 13  
Month to date cooling degree days 212 190  
Year to date cooling degree days 522 474  
Since 1 June cooling degree days 448 415  
Growing Degree Days 24 (Base 50)    
Moisture  
Dew Point 60 °F    
Average Humidity 64    
Maximum Humidity 90    
Minimum Humidity 37    
Precipitation  
Precipitation 0.00 in 0.14 in 2.24 in (2008)
Month to date precipitation 0.27 2.18  
Year to date precipitation 13.31 15.80  
Snow  
Snow 0.00 in 0.00 in - ()
Month to date snowfall 0.0 0.0  
Since 1 June snowfall 0.0 0.0  
Since 1 July snowfall 0.0 0.0  
Snow Depth 0.00 in    
Sea Level Pressure  
Sea Level Pressure 30.20 in    
Wind  
Wind Speed 8 mph (South)    
Max Wind Speed 17 mph    
Max Gust Speed 26 mph    
Visibility 10 miles    
Events      
T = Trace of Precipitation, MM = Missing Value Source: NWS Daily Summary

Daily Weather History Graph

Daily Weather History Graph

Search for Another Location

Airport or City:

Trip Planner

Search our weather history database for the weather conditions in past years. The results will help you decide how hot, cold, wet, or windy it might be!

Date:

Astronomy

Jul. 16, 2013 Rise Set
Actual Time 6:16 AM CDT 9:02 PM CDT
Civil Twilight 5:44 AM CDT 9:34 PM CDT
Nautical Twilight 5:04 AM CDT 10:14 PM CDT
Astronomical Twilight 4:18 AM CDT 11:00 PM CDT
Moon 2:45 PM CDT (7/16) 12:48 AM CDT (7/16)
Length of Visible Light 15h 49m
Length of Day
14h 45m
First Quarter, 56% of the Moon is Illuminated
Jul 16
First Quarter
Jul 22
Full
Jul 29
Last Quarter
Aug 6
New
Aug 14
First Quarter

Hourly Weather History & Observations

Time (CDT) Temp. Heat Index Dew Point Humidity Pressure Visibility Wind Dir Wind Speed Gust Speed Precip Events Conditions
12:53 AM 70.0 °F - 61.0 °F 73% 30.16 in 10.0 mi South 6.9 mph - N/A   Clear
1:53 AM 69.1 °F - 61.0 °F 75% 30.16 in 10.0 mi SSE 6.9 mph - N/A   Clear
2:53 AM 66.9 °F - 60.1 °F 79% 30.15 in 10.0 mi South 6.9 mph - N/A   Clear
3:53 AM 66.0 °F - 59.0 °F 78% 30.16 in 10.0 mi SSW 8.1 mph - N/A   Clear
4:53 AM 64.9 °F - 59.0 °F 81% 30.15 in 10.0 mi South 6.9 mph - N/A   Clear
5:53 AM 63.0 °F - 59.0 °F 87% 30.16 in 10.0 mi SSE 5.8 mph - N/A   Clear
6:53 AM 63.0 °F - 59.0 °F 87% 30.19 in 10.0 mi South 4.6 mph - N/A   Clear
7:53 AM 64.9 °F - 60.1 °F 84% 30.21 in 10.0 mi SSW 6.9 mph - N/A   Clear
8:53 AM 71.1 °F - 61.0 °F 70% 30.22 in 10.0 mi South 6.9 mph - N/A   Clear
9:53 AM 73.9 °F - 60.1 °F 62% 30.22 in 10.0 mi SSW 12.7 mph 19.6 mph N/A   Scattered Clouds
10:03 AM 75.2 °F - 60.8 °F 61% 30.27 in 10.0 mi SSW 11.5 mph 18.4 mph N/A   Mostly Cloudy
10:21 AM 73.4 °F - 60.8 °F 65% 30.27 in 10.0 mi South 12.7 mph 19.6 mph N/A   Scattered Clouds
10:53 AM 75.9 °F - 61.0 °F 60% 30.23 in 10.0 mi SSW 13.8 mph 19.6 mph N/A   Partly Cloudy
11:53 AM 81.0 °F 81.7 °F 61.0 °F 50% 30.22 in 10.0 mi South 16.1 mph 21.9 mph N/A   Scattered Clouds
12:53 PM 82.0 °F 82.1 °F 59.0 °F 45% 30.22 in 10.0 mi South 11.5 mph 23.0 mph N/A   Scattered Clouds
1:53 PM 82.9 °F 82.8 °F 59.0 °F 44% 30.21 in 10.0 mi South 16.1 mph 21.9 mph N/A   Mostly Cloudy
2:53 PM 84.0 °F 83.8 °F 59.0 °F 43% 30.20 in 10.0 mi SSW 13.8 mph - N/A   Mostly Cloudy
3:53 PM 84.9 °F 84.2 °F 57.9 °F 40% 30.20 in 10.0 mi South 9.2 mph 19.6 mph N/A   Mostly Cloudy
4:53 PM 86.0 °F 84.9 °F 57.0 °F 37% 30.19 in 10.0 mi SSW 9.2 mph 18.4 mph N/A   Mostly Cloudy
5:53 PM 82.9 °F 82.6 °F 57.9 °F 42% 30.20 in 10.0 mi South 6.9 mph - N/A   Mostly Cloudy
6:53 PM 84.0 °F 83.8 °F 59.0 °F 43% 30.19 in 10.0 mi SSW 6.9 mph - N/A   Partly Cloudy
7:53 PM 82.9 °F 82.8 °F 59.0 °F 44% 30.19 in 10.0 mi South 5.8 mph - N/A   Clear
8:53 PM 82.0 °F 82.1 °F 59.0 °F 45% 30.19 in 10.0 mi SSE 5.8 mph - N/A   Overcast
9:53 PM 79.0 °F - 59.0 °F 50% 30.21 in 10.0 mi SSE 5.8 mph - N/A   Clear
10:53 PM 75.9 °F - 60.1 °F 58% 30.24 in 10.0 mi SSE 3.5 mph - N/A   Partly Cloudy
11:53 PM 75.0 °F - 60.1 °F 60% 30.24 in 10.0 mi SSE 4.6 mph - N/A   Clear